Baker, MT

11:29 AM MDT on September 26, 2017 (GMT -0600)
Baker Municipal

Weather History for KBHK - January, 2012

Change the Weather History Date:

Sunday, January 1, 2012

  Actual Average Record
Temperature  
Mean Temperature 18 °F -  
Max Temperature 27 °F 28 °F 41 °F (2000)
Min Temperature 9 °F 24 °F -11 °F (2005)
Degree Days  
Heating Degree Days 46    
Moisture  
Dew Point 6 °F    
Average Humidity 55    
Maximum Humidity 77    
Minimum Humidity 34    
Precipitation  
Precipitation 0.00 in - - ()
Sea Level Pressure  
Sea Level Pressure 30.62 in    
Wind  
Wind Speed 14 mph (WNW)    
Max Wind Speed 22 mph    
Max Gust Speed 31 mph    
Visibility 10 miles    
Events      
Averages and records for this station are not official NWS values.
T = Trace of Precipitation, MM = Missing Value Source: NWS Daily Summary

Daily Weather History Graph

Daily Weather History Graph

Search for Another Location

Airport or City:

Trip Planner

Search our weather history database for the weather conditions in past years. The results will help you decide how hot, cold, wet, or windy it might be!

Date:

Astronomy

Jan. 01, 2012 Rise Set
Actual Time 7:40 AM MST 4:20 PM MST
Civil Twilight 7:05 AM MST 4:55 PM MST
Nautical Twilight 6:27 AM MST 5:33 PM MST
Astronomical Twilight 5:50 AM MST 6:10 PM MST
Moon 11:22 AM MST (1/1) 12:24 AM MST (1/1)
Length of Visible Light 9h 49m
Length of Day
8h 40m
First Quarter, 55% of the Moon is Illuminated
Jan 1
First Quarter
Jan 9
Full
Jan 16
Last Quarter
Jan 23
New
Jan 30
First Quarter

Hourly Weather History & Observations

Time (MST) Temp. Windchill Dew Point Humidity Pressure Visibility Wind Dir Wind Speed Gust Speed Precip Events Conditions
12:51 AM 27.0 °F 15.6 °F 9.0 °F 47% 30.37 in 10.0 mi WNW 13.8 mph - N/A   Overcast
1:51 AM 26.1 °F 13.1 °F 10.0 °F 51% 30.39 in 10.0 mi NW 17.3 mph 28.8 mph N/A   Overcast
2:51 AM 25.0 °F 10.2 °F 12.9 °F 60% 30.43 in 10.0 mi WNW 21.9 mph 31.1 mph N/A   Overcast
3:51 AM 24.1 °F 10.6 °F 12.9 °F 62% 30.45 in 10.0 mi WNW 17.3 mph 24.2 mph N/A   Mostly Cloudy
4:51 AM 24.1 °F 9.8 °F 10.9 °F 57% 30.49 in 10.0 mi NW 19.6 mph - N/A   Scattered Clouds
5:51 AM 21.9 °F 7.3 °F 10.9 °F 63% 30.52 in 10.0 mi NW 18.4 mph 26.5 mph N/A   Clear
6:51 AM 21.0 °F 6.6 °F 10.0 °F 63% 30.56 in 10.0 mi NW 17.3 mph - N/A   Clear
8:51 AM 21.0 °F 5.4 °F 8.1 °F 57% 30.61 in 10.0 mi WNW 20.7 mph 29.9 mph N/A   Clear
9:51 AM 23.0 °F 8.7 °F 7.0 °F 50% 30.66 in 10.0 mi WNW 18.4 mph 26.5 mph N/A   Clear
10:51 AM 25.0 °F 10.9 °F 3.9 °F 41% 30.67 in 10.0 mi NW 19.6 mph 27.6 mph N/A   Clear
12:51 PM 27.0 °F 13.9 °F 3.0 °F 36% 30.65 in 10.0 mi NW 18.4 mph 26.5 mph N/A   Clear
1:51 PM 27.0 °F 14.3 °F 1.9 °F 34% 30.66 in 10.0 mi NW 17.3 mph 24.2 mph N/A   Clear
2:51 PM 27.0 °F 16.1 °F 1.9 °F 34% 30.67 in 10.0 mi WNW 12.7 mph - N/A   Clear
3:51 PM 25.0 °F 14.2 °F 3.0 °F 39% 30.70 in 10.0 mi NW 11.5 mph - N/A   Clear
4:51 PM 19.0 °F 8.2 °F 3.9 °F 52% 30.73 in 10.0 mi WNW 9.2 mph - N/A   Clear
5:51 PM 15.1 °F 6.4 °F 5.0 °F 64% 30.75 in 10.0 mi WNW 5.8 mph - N/A   Clear
6:51 PM 12.9 °F - 5.0 °F 71% 30.76 in 10.0 mi Calm Calm - N/A   Clear
7:51 PM 14.0 °F 6.5 °F 3.9 °F 64% 30.77 in 10.0 mi SW 4.6 mph - N/A   Clear
8:51 PM 14.0 °F - 3.9 °F 64% 30.76 in 10.0 mi Calm Calm - N/A   Clear
10:51 PM 10.0 °F - 3.9 °F 76% 30.74 in 10.0 mi Calm Calm - N/A   Clear
11:51 PM 9.0 °F - 3.0 °F 77% 30.72 in 10.0 mi Calm Calm - N/A   Clear